Regional Weather Roundup
Issued by NWS

Home | Current Version | Previous Version | Graphics & Text | Print | Product List | Glossary On
Versions: 1 2 3 4 5 6 7 8 9 10 11 12 13 14 15 16 17 18 19 20 21 22 23 24 25 26 27 28 29 30 31 32 33 34 35 36 37 38 39 40 41 42 43 44 45 46 47 48 49 50
000
ASUS43 KOAX 251610
RWRNE

WEATHER ROUNDUP FOR NEBRASKA
NATIONAL WEATHER SERVICE OMAHA NE
1100 AM CDT MON MAY 25 2015

NOTES: SATELLITE DATA IS BEING USED TO AUGMENT CLOUD COVER ABOVE
       12000 FEET.
       "FAIR" INDICATES FEW OR NO CLOUDS BELOW 12,000 FEET WITH NO
       SIGNIFICANT WEATHER AND/OR OBSTRUCTIONS TO VISIBILITY.

  * THESE STATIONS DO NOT REPORT WEATHER SUCH AS RAIN...SNOW OR FOG.

NEZ001>004-019>022-054>056-251700-
NEBRASKA PANHANDLE

CITY           SKY/WX    TMP DP  RH WIND       PRES   REMARKS
SCOTTSBLUFF    LGT RAIN  52  50  93 NW10      29.85S
ALLIANCE       LGT RAIN  52  51  97 W7        29.80S
CHADRON        LGT RAIN  54  51  90 N7        29.83S
KIMBALL          N/A    N/A N/A N/A MISG        N/A
SIDNEY         LGT RAIN  51  48  89 NW13      29.86R
$$

NEZ057>060-069>072-079>082-251700-
SOUTHWEST NEBRASKA

CITY           SKY/WX    TMP DP  RH WIND       PRES   REMARKS
NORTH PLATTE   CLOUDY    60  52  74 W6        29.81S
IMPERIAL       PTSUNNY   60  51  72 NW3       29.82F
LEXINGTON      MOSUNNY   65  55  68 SW5       29.79F
MCCOOK         SUNNY     65  53  65 W10       29.79F
OGALLALA       CLOUDY    58  53  84 W9        29.82R
$$

NEZ005>010-023>029-035>040-094-251700-
NORTH CENTRAL NEBRASKA

CITY           SKY/WX    TMP DP  RH WIND       PRES   REMARKS
VALENTINE      CLOUDY    61  55  81 E12       29.77S
AINSWORTH      HVY RAIN  57  57 100 SE5       29.78R VSB 3/4
BROKEN BOW     MOSUNNY   65  54  67 W3        29.78S
O`NEILL        RAIN      61  60  97 SE6       29.77F
ORD            MOSUNNY   65  54  67 SW10      29.77R
THEDFORD       CLOUDY    57  55  92 NW6       29.79R
$$

NEZ041-046>049-061>064-073>077-083>087-251700-
SOUTH CENTRAL NEBRASKA

CITY           SKY/WX    TMP DP  RH WIND       PRES   REMARKS
GRAND ISLAND   SUNNY     69  52  54 S5        29.79F
AURORA         SUNNY     70  53  53 S14       29.79F
HASTINGS       PTSUNNY   66  53  63 S9        29.80F
HEBRON         PTSUNNY   65  55  71 SW7       29.82F
HOLDREGE       MOSUNNY   65  52  62 SW9       29.79F
KEARNEY *      SUNNY     66  54  63 SW12G17   29.79F
YORK           SUNNY     68  55  64 S15       29.80F
$$

NEZ011>018-030>034-042>045-251700-
NORTHEAST NEBRASKA

CITY           SKY/WX    TMP DP  RH WIND       PRES   REMARKS
NORFOLK        PTSUNNY   67  57  70 S9        29.77F
ALBION         MOSUNNY   67  56  67 SW10      29.78S
BLAIR          PTSUNNY   70  58  65 S12       29.81S
COLUMBUS *     MOSUNNY   66  54  63 SW13      29.82S
FREMONT        PTSUNNY   71  58  63 S14       29.80S
TEKAMAH        PTSUNNY   70  60  70 S8        29.78F
WAYNE          LGT RAIN  64  61  90 CALM      29.78F
$$

NEZ050>053-065>068-078-088>093-251700-
SOUTHEAST NEBRASKA

CITY           SKY/WX    TMP DP  RH WIND       PRES   REMARKS
LINCOLN        MOSUNNY   70  57  63 SW14      29.81F
OMAHA EPPLEY   PTSUNNY   71  58  63 S13       29.81F
BEATRICE       PTSUNNY   68  59  72 SW10      29.82F
FALLS CITY     MOSUNNY   74  60  61 S22       29.82R
NEBRASKA CITY  MOSUNNY   70  58  65 SW12      29.83S
PLATTSMOUTH    MOSUNNY   70  57  64 S10       29.83S
$$

NEZ044-045-051>053-067-251700-
OMAHA AREA

CITY           SKY/WX    TMP DP  RH WIND       PRES   REMARKS
OMAHA EPPLEY   PTSUNNY   71  58  63 S13       29.81F
BLAIR          PTSUNNY   70  58  65 S12       29.81S
FREMONT        PTSUNNY   71  58  63 S14       29.80S
MILLARD        MOSUNNY   71  57  61 S9        29.81S
OFFUTT AFB     MOSUNNY   71  57  61 S10       29.81F
PLATTSMOUTH    MOSUNNY   70  57  64 S10       29.83S
WAHOO          FAIR      71  56  58 SW16      29.80S
$$



USA.gov is the U.S. government's official web portal to all federal, state and local government web resources and services.